Wind_Speed
7 7 7 6 8 10 11 8 7 8 9 9 8 8 8 8 9 9 9 10 9 9 9 8 8 7 7 6 6 7 7 8 9 10 11 12 13 13 14 14 13 13 12 11 10 9 8 7 7
7 6 5 6 9 14 11 9 11 11 11 11 10 10 10 9 9 9 9 9 9 8 7 7 7 7 6 6 6 7 7 8 9 10 11 12 13 14 15 15 15 15 14 13 12 10 9 7 7
6 5 5 5 9 9 9 13 12 13 12 11 12 11 11 11 10 10 10 9 9 8 7 7 7 7 7 6 7 7 8 9 10 10 11 12 13 14 15 16 17 17 17 16 15 13 11 9 7
7 5 4 5 8 7 11 14 12 10 12 10 14 13 12 12 12 12 11 11 9 9 8 8 8 8 8 9 9 10 12 13 13 13 14 15 15 16 16 17 18 18 19 18 17 16 14 12 11
8 4 2 8 6 10 15 17 11 10 11 13 17 15 13 13 13 13 13 12 11 11 11 10 10 10 11 12 13 14 15 16 17 18 18 18 18 18 19 19 20 20 20 20 20 19 18 16 15
10 6 1 4 7 12 14 13 9 9 12 13 14 15 15 13 14 14 14 14 13 13 13 13 13 14 15 16 17 17 18 20 20 21 21 22 22 22 22 22 22 22 22 21 21 21 21 20 19
13 10 5 4 8 14 18 17 12 12 14 13 14 16 15 13 14 15 15 16 16 14 15 16 17 17 18 19 19 20 21 23 23 24 24 25 25 25 25 25 25 24 24 24 23 23 23 22 22
15 13 7 4 7 13 19 20 18 16 18 19 18 19 13 14 16 16 16 17 18 18 17 18 18 19 19 20 21 23 24 25 26 26 26 27 27 28 28 28 28 27 27 26 26 25 25 25 25
16 14 6 2 10 16 23 24 21 19 21 21 20 20 19 18 18 18 18 19 20 21 21 21 21 21 21 22 23 24 25 25 26 27 28 28 29 30 30 30 30 29 29 29 28 28 27 27 27
17 14 7 8 19 24 28 28 24 22 25 24 21 21 22 22 21 22 22 22 22 24 24 24 24 23 24 25 25 25 26 27 28 29 30 30 31 31 31 31 31 31 31 31 31 31 30 30 29
18 16 14 16 23 28 29 27 25 25 28 26 25 25 25 25 25 25 26 26 26 26 27 26 26 26 27 28 28 28 29 30 30 31 31 31 32 32 33 33 32 33 34 35 34 33 33 32 32
19 19 19 22 25 26 25 25 25 25 27 28 29 29 28 29 29 29 30 30 30 29 30 29 29 29 30 31 31 31 32 33 34 34 34 33 33 34 35 35 34 34 34 36 38 36 35 34 34
19 20 20 22 24 24 23 22 25 24 25 26 28 30 31 32 32 32 33 33 32 33 33 32 33 32 32 33 34 34 34 35 36 37 36 35 35 35 36 35 35 35 35 37 39 39 37 37 35
17 18 19 21 21 21 21 21 24 22 23 25 26 29 30 32 33 33 34 34 35 35 35 35 35 34 34 35 36 36 37 37 38 38 38 38 37 36 36 36 37 36 36 38 39 39 38 37 36
14 15 16 18 19 20 19 21 23 22 22 23 24 26 27 29 30 31 32 33 33 33 34 35 35 34 35 36 38 39 39 40 40 39 39 38 37 37 36 36 36 37 37 37 38 38 39 38 37
7 9 12 17 15 14 15 21 23 22 22 22 22 23 23 24 26 27 28 29 30 31 32 34 35 35 36 37 39 41 42 42 42 41 40 39 38 37 36 36 37 37 36 37 37 38 37 37 37
6 11 19 21 16 12 16 22 24 24 23 21 20 20 19 20 21 22 24 26 28 30 32 34 36 37 39 39 40 41 42 42 42 41 40 39 39 38 38 37 37 37 36 36 37 36 35 36 36
14 16 18 17 15 13 18 25 24 23 22 21 20 19 18 18 19 21 23 25 27 30 32 34 36 38 39 40 41 41 40 40 40 40 39 39 39 39 39 39 38 38 36 36 35 32 32 34 35
9 10 12 13 15 16 20 24 21 19 19 18 17 17 17 18 19 21 23 25 27 30 32 34 35 37 38 39 40 40 40 40 41 41 40 39 40 40 40 40 39 38 37 36 33 31 31 33 34
9 11 14 18 20 17 17 18 16 13 13 13 13 14 15 17 18 21 23 25 27 29 31 32 34 36 38 39 40 40 41 41 42 42 41 41 41 42 42 41 40 39 38 37 34 33 31 32 34
10 14 15 17 17 14 13 14 12 10 9 10 13 15 17 18 20 23 25 26 28 30 32 34 35 36 38 40 41 41 41 41 42 42 42 41 41 42 43 42 41 40 39 37 36 35 33 32 32
12 13 14 14 15 16 15 16 11 10 10 12 15 17 19 20 22 24 26 28 30 32 34 35 35 36 38 39 40 40 40 41 41 42 42 42 42 42 41 41 40 40 39 38 37 36 35 34 32
10 12 12 15 19 21 22 22 14 12 12 14 18 20 21 22 24 26 27 29 31 33 34 36 36 37 38 39 40 41 41 41 42 42 42 41 40 40 39 39 38 38 37 37 38 38 37 36 35
8 11 14 18 21 21 17 15 10 13 19 20 21 22 23 24 26 27 28 29 31 33 34 36 37 38 39 39 40 41 41 41 41 41 40 39 38 38 38 37 36 36 36 36 36 37 38 38 39
8 10 15 20 23 20 13 11 10 15 22 23 24 25 25 26 28 29 30 31 32 34 35 36 37 38 39 40 40 41 41 41 41 40 39 39 38 38 38 37 35 35 35 36 35 36 37 38 39
8 10 15 18 21 23 17 11 14 18 20 21 23 24 26 27 29 30 31 32 34 35 36 37 37 38 39 40 41 41 41 41 40 40 39 39 39 39 40 41 40 38 38 38 38 37 37 38 39
7 8 11 13 13 16 18 18 18 20 21 22 23 25 26 28 29 31 32 34 35 37 37 38 38 39 39 40 40 41 41 41 40 40 40 40 40 41 42 43 44 44 43 43 42 42 41 41 40
10 9 9 6 8 10 14 20 20 22 23 23 24 26 28 29 30 31 33 35 36 38 39 39 40 39 39 40 40 41 41 40 40 40 41 41 42 42 43 45 46 47 48 48 47 47 46 45 45
10 9 9 6 6 6 11 21 22 23 23 23 25 27 28 30 31 32 34 35 37 39 40 41 41 41 40 41 41 41 41 40 40 40 40 41 42 44 45 47 48 50 51 52 52 52 51 50 49
10 11 10 9 8 7 9 22 23 24 23 24 26 27 29 30 31 33 35 37 39 40 41 42 42 42 42 42 42 42 41 40 40 41 41 42 43 45 48 50 51 53 54 55 56 56 55 54 54
Wind_Direction
22 29 34 33 19 24 36 26 335 326 326 333 336 321 310 314 309 303 301 302 306 303 302 300 300 301 304 311 318 325 330 331 330 327 325 322 320 320 321 322 322 322 324 330 337 345 352 357 357
9 15 22 27 18 16 6 341 321 322 330 329 325 320 322 320 314 312 308 308 308 305 304 304 304 305 309 315 320 325 328 327 324 322 321 319 316 315 315 316 316 314 315 318 321 326 330 336 341
349 354 22 33 35 357 323 311 318 328 325 329 317 315 319 317 311 307 307 307 309 309 310 309 309 311 315 319 321 322 322 320 317 315 314 313 311 310 309 309 309 308 308 308 309 310 312 313 316
328 350 28 46 34 317 298 298 312 325 317 326 308 309 312 310 308 305 304 301 304 309 314 314 314 316 318 319 317 317 317 315 314 312 309 308 307 306 304 303 302 301 300 300 300 299 299 298 297
309 325 35 31 351 289 295 304 322 317 305 306 301 302 304 305 306 306 304 302 303 305 308 311 315 316 317 318 316 315 315 313 310 308 306 304 302 300 299 298 296 295 293 292 293 291 289 288 287
296 287 360 17 303 288 294 299 310 298 292 292 295 297 299 300 302 303 304 300 300 304 306 308 311 311 311 310 311 312 311 309 307 306 304 301 299 297 295 293 292 290 288 286 285 285 283 281 279
289 281 253 205 265 287 286 285 278 274 275 282 285 291 289 297 300 302 304 304 301 302 303 304 305 305 306 307 309 309 308 307 306 305 303 302 298 295 293 290 289 288 285 284 280 278 277 275 274
283 278 256 206 263 271 273 278 278 276 276 279 283 287 292 303 299 301 301 301 301 300 301 301 303 303 304 304 306 307 307 306 305 304 303 300 297 294 292 290 288 287 284 282 279 275 273 271 270
278 270 255 223 253 249 258 265 274 281 277 278 280 284 293 297 297 299 298 297 298 300 301 301 301 301 302 304 304 304 304 305 305 304 302 300 298 295 292 290 289 286 284 281 277 274 271 269 267
271 260 228 237 244 236 249 262 269 272 272 274 277 284 289 290 292 294 296 296 296 299 301 302 301 301 301 302 302 301 301 302 304 304 302 299 297 295 292 288 287 287 285 283 280 274 270 268 264
263 250 226 231 249 250 252 264 268 263 267 273 279 281 282 284 286 288 291 293 293 294 297 299 300 301 302 301 301 301 300 301 300 301 302 299 297 295 293 290 288 287 286 285 281 278 272 267 263
260 249 240 242 251 260 259 259 264 265 268 271 274 277 278 280 282 285 288 290 289 292 296 296 297 298 299 299 300 300 299 300 300 300 300 298 298 296 296 293 290 286 285 287 284 280 274 269 265
261 257 251 254 259 264 265 261 262 266 268 267 269 272 274 276 277 279 281 283 285 288 291 292 293 294 296 297 297 298 297 298 299 299 299 298 297 297 296 294 292 289 286 286 283 280 276 269 264
256 258 259 261 263 264 264 264 267 270 269 267 267 268 271 273 275 276 277 279 281 284 286 287 289 291 292 293 295 296 296 296 297 297 296 296 295 295 293 292 291 291 289 288 283 278 274 270 264
260 262 261 264 266 268 269 266 272 275 273 271 269 269 269 271 272 273 275 277 279 281 282 285 286 288 289 292 293 293 293 293 293 293 293 294 293 292 291 290 292 291 289 289 284 278 273 268 263
274 275 261 253 255 270 279 278 278 280 280 277 274 273 272 271 272 273 275 276 278 279 282 284 287 289 290 290 291 291 291 291 290 290 290 291 291 290 289 289 292 292 289 286 282 276 272 265 261
263 248 243 243 249 270 285 288 288 288 285 282 280 279 278 276 276 277 277 278 279 280 282 284 286 288 290 290 290 291 290 289 288 287 287 288 287 287 287 287 289 290 288 284 283 276 271 262 257
253 243 241 246 270 276 282 291 290 288 287 286 285 285 284 283 283 282 282 282 283 284 284 285 286 288 289 289 290 290 290 289 287 286 285 286 286 286 285 285 286 288 288 285 281 272 267 261 255
294 306 285 272 279 280 288 293 293 290 289 289 289 289 288 288 287 286 285 285 285 285 285 285 286 287 288 289 289 289 289 289 288 287 287 286 285 285 284 284 285 285 284 285 280 270 265 259 253
270 275 267 277 281 281 290 294 297 297 298 299 299 298 296 293 291 291 290 289 288 288 288 288 289 290 290 290 290 290 290 289 288 288 287 286 285 284 283 283 282 282 282 281 276 272 268 262 257
255 247 259 276 288 287 284 279 288 296 301 310 310 307 304 301 298 298 297 296 296 295 294 294 294 294 295 294 294 293 292 291 290 289 288 287 286 284 283 283 282 281 279 277 274 271 271 266 259
274 260 263 279 285 279 281 277 279 309 309 316 319 316 313 310 308 306 305 304 303 302 301 301 300 300 299 298 298 297 296 295 294 292 291 290 288 286 285 283 282 280 278 275 272 270 268 264 258
289 294 287 284 281 278 275 270 267 317 322 327 328 324 320 317 315 313 311 310 309 308 308 307 306 305 304 303 302 301 299 298 297 296 294 293 291 289 287 285 283 281 279 275 272 270 267 263 259
289 291 291 291 289 287 290 297 300 341 342 336 333 329 327 324 322 320 318 316 314 313 312 311 310 309 308 306 305 304 302 300 299 298 296 294 293 291 290 287 285 282 280 277 273 270 266 262 259
290 304 306 314 324 331 332 339 335 348 342 337 332 331 330 328 326 325 324 323 321 319 317 315 313 312 310 308 307 305 303 301 299 297 295 294 292 291 289 288 286 283 281 279 276 271 267 263 259
313 314 315 325 332 335 341 343 345 343 337 332 330 329 329 329 328 328 327 326 324 323 321 319 317 314 312 310 308 305 303 300 297 295 293 291 289 287 287 286 284 282 280 279 277 273 269 264 261
305 295 300 316 330 340 343 336 332 335 332 331 330 329 329 329 329 328 328 328 326 325 324 321 319 316 313 310 307 305 302 299 295 292 290 288 287 286 284 283 282 280 279 278 276 273 269 265 261
326 316 310 313 327 341 336 320 322 325 326 328 329 329 329 330 329 329 329 328 327 325 323 321 319 316 313 311 308 305 302 299 295 291 288 286 286 285 284 282 281 279 278 276 274 271 268 265 261
320 320 323 322 306 318 325 308 318 320 324 327 328 329 329 329 329 329 329 328 327 325 323 322 319 317 315 312 310 307 303 300 297 294 291 289 287 286 285 283 280 278 276 274 273 270 267 263 260
329 327 328 328 328 337 330 305 314 320 326 329 328 329 329 330 330 330 330 329 328 326 324 322 321 319 317 315 312 309 305 301 298 295 294 292 291 289 287 285 282 279 276 274 271 268 266 262 259
Height
5921 5921 5921 5922 5922 5919 5917 5918 5920 5919 5918 5918 5917 5915 5914 5915 5915 5916 5912 5911 5911 5910 5910 5910 5909 5909 5909 5908 5908 5907 5907 5906 5906 5905 5905 5904 5903 5903 5902 5901 5901 5900 5900 5899 5898 5898 5896 5895 5894
5922 5922 5923 5923 5922 5920 5920 5920 5920 5919 5918 5917 5916 5915 5914 5914 5913 5913 5911 5911 5911 5910 5909 5909 5908 5908 5908 5907 5907 5906 5906 5905 5905 5904 5904 5903 5903 5902 5901 5901 5900 5899 5899 5898 5898 5897 5896 5895 5894
5922 5922 5923 5923 5922 5923 5923 5921 5920 5918 5917 5916 5914 5914 5914 5913 5913 5912 5911 5911 5910 5909 5909 5908 5907 5907 5906 5906 5905 5905 5904 5904 5904 5903 5903 5902 5901 5901 5900 5899 5899 5898 5898 5897 5897 5896 5896 5895 5894
5921 5922 5923 5924 5923 5924 5923 5921 5919 5919 5916 5915 5913 5913 5912 5911 5911 5911 5910 5910 5909 5909 5908 5907 5907 5906 5905 5905 5904 5904 5903 5903 5902 5901 5901 5900 5900 5899 5898 5898 5897 5896 5896 5895 5895 5895 5894 5894 5894
5920 5921 5923 5923 5924 5924 5922 5920 5919 5918 5916 5914 5911 5910 5910 5910 5909 5909 5908 5908 5908 5907 5907 5906 5906 5905 5904 5904 5903 5902 5901 5901 5900 5899 5898 5898 5897 5896 5896 5895 5894 5893 5893 5893 5893 5893 5893 5892 5892
5919 5920 5921 5923 5926 5924 5922 5919 5918 5916 5914 5912 5909 5907 5908 5907 5907 5907 5906 5905 5906 5905 5905 5904 5904 5903 5902 5901 5901 5900 5899 5898 5897 5896 5895 5894 5893 5892 5892 5891 5890 5890 5890 5889 5889 5890 5890 5890 5890
5917 5917 5918 5922 5925 5923 5919 5916 5915 5913 5912 5910 5906 5904 5905 5905 5905 5904 5904 5903 5902 5903 5903 5902 5901 5900 5899 5899 5898 5897 5896 5894 5893 5892 5891 5890 5889 5888 5887 5886 5886 5885 5885 5885 5885 5886 5886 5886 5886
5913 5915 5915 5919 5924 5923 5916 5913 5912 5910 5908 5907 5905 5902 5900 5902 5902 5902 5902 5901 5900 5900 5900 5899 5899 5898 5897 5896 5894 5893 5892 5890 5889 5887 5886 5885 5884 5882 5881 5881 5880 5880 5880 5880 5880 5881 5881 5881 5882
5909 5912 5913 5917 5920 5918 5912 5909 5908 5907 5903 5902 5902 5901 5901 5901 5900 5900 5899 5899 5898 5896 5896 5896 5895 5895 5893 5892 5891 5889 5888 5886 5884 5883 5881 5880 5878 5877 5876 5875 5874 5874 5873 5873 5874 5874 5875 5876 5877
5906 5907 5909 5913 5912 5910 5906 5904 5905 5904 5899 5897 5897 5898 5898 5898 5897 5896 5896 5895 5895 5893 5892 5892 5891 5890 5889 5888 5887 5885 5884 5882 5880 5878 5876 5874 5873 5871 5870 5870 5868 5867 5866 5866 5867 5867 5868 5869 5870
5901 5902 5903 5905 5904 5902 5902 5900 5900 5899 5895 5896 5895 5896 5894 5894 5893 5892 5892 5891 5889 5889 5889 5888 5887 5886 5884 5883 5882 5880 5879 5877 5875 5873 5871 5869 5867 5866 5864 5863 5862 5861 5859 5859 5859 5859 5860 5862 5863
5896 5896 5897 5898 5897 5895 5896 5895 5893 5893 5892 5892 5892 5891 5889 5889 5888 5888 5887 5886 5884 5883 5884 5883 5882 5881 5879 5878 5876 5875 5873 5871 5869 5867 5865 5863 5862 5860 5858 5856 5854 5853 5852 5851 5850 5851 5852 5853 5855
5891 5892 5892 5892 5891 5891 5891 5890 5888 5888 5888 5888 5887 5887 5886 5884 5884 5884 5882 5880 5879 5878 5879 5878 5877 5876 5874 5873 5871 5869 5867 5865 5863 5860 5858 5856 5855 5854 5852 5850 5848 5846 5844 5844 5842 5842 5843 5844 5846
5887 5887 5888 5887 5887 5886 5886 5885 5883 5883 5883 5883 5882 5881 5881 5880 5879 5878 5877 5876 5875 5874 5874 5872 5871 5871 5869 5867 5865 5863 5861 5859 5857 5854 5852 5850 5848 5846 5845 5843 5841 5838 5836 5834 5833 5833 5834 5835 5838
5882 5883 5884 5883 5882 5881 5881 5881 5879 5878 5878 5877 5877 5876 5875 5874 5874 5873 5872 5871 5870 5869 5868 5867 5866 5865 5863 5861 5858 5856 5854 5851 5849 5847 5844 5842 5840 5838 5837 5835 5833 5831 5829 5826 5825 5824 5825 5826 5829
5879 5880 5880 5879 5878 5877 5879 5876 5874 5873 5873 5872 5871 5871 5870 5869 5868 5867 5867 5866 5865 5864 5863 5861 5860 5858 5856 5853 5851 5848 5845 5843 5840 5838 5836 5834 5832 5830 5828 5827 5825 5823 5820 5818 5817 5816 5817 5818 5820
5878 5877 5875 5874 5873 5873 5873 5872 5870 5869 5868 5867 5866 5866 5865 5864 5863 5862 5862 5861 5860 5859 5857 5855 5853 5851 5848 5846 5843 5840 5837 5834 5831 5829 5827 5825 5823 5822 5820 5819 5817 5815 5812 5810 5808 5807 5808 5809 5812
5873 5872 5869 5870 5869 5869 5869 5868 5867 5865 5864 5863 5862 5861 5861 5860 5859 5858 5857 5856 5855 5853 5851 5849 5846 5843 5840 5837 5834 5831 5828 5825 5822 5820 5818 5817 5814 5813 5811 5810 5808 5806 5804 5802 5799 5798 5800 5802 5804
5871 5872 5868 5867 5867 5867 5866 5865 5863 5861 5860 5859 5858 5857 5857 5856 5855 5854 5852 5851 5849 5847 5844 5841 5839 5836 5832 5829 5826 5823 5820 5817 5813 5811 5809 5807 5805 5803 5802 5800 5799 5797 5795 5794 5791 5791 5791 5793 5796
5873 5873 5868 5868 5868 5867 5864 5861 5859 5858 5857 5856 5855 5855 5854 5853 5851 5849 5847 5845 5842 5840 5837 5834 5831 5828 5824 5820 5817 5814 5811 5808 5804 5801 5799 5798 5796 5793 5791 5790 5789 5788 5787 5786 5785 5784 5785 5786 5788
5871 5870 5868 5867 5866 5864 5861 5858 5856 5855 5855 5854 5853 5852 5850 5849 5847 5844 5842 5839 5835 5832 5829 5826 5823 5819 5815 5811 5807 5804 5801 5798 5794 5791 5789 5787 5785 5783 5781 5780 5779 5779 5778 5778 5777 5777 5777 5779 5781
5867 5867 5866 5864 5862 5858 5855 5853 5852 5851 5851 5851 5850 5849 5847 5844 5842 5839 5836 5832 5829 5825 5821 5817 5814 5811 5806 5802 5797 5794 5790 5787 5784 5781 5778 5776 5774 5772 5770 5769 5769 5768 5768 5769 5769 5769 5770 5771 5773
5866 5865 5863 5862 5859 5856 5851 5847 5844 5847 5846 5847 5846 5845 5842 5840 5837 5833 5830 5826 5822 5818 5813 5809 5805 5801 5797 5793 5788 5784 5780 5776 5773 5770 5767 5765 5762 5760 5759 5758 5757 5757 5757 5758 5759 5760 5761 5763 5764
5865 5865 5863 5860 5856 5852 5848 5844 5841 5844 5844 5843 5842 5841 5838 5835 5832 5828 5824 5820 5816 5811 5806 5801 5797 5792 5787 5783 5779 5774 5770 5766 5763 5759 5756 5754 5752 5750 5748 5747 5747 5747 5747 5747 5748 5750 5751 5753 5755
5864 5864 5861 5857 5852 5848 5846 5843 5841 5843 5843 5842 5840 5837 5834 5831 5827 5823 5818 5814 5809 5804 5799 5794 5789 5784 5779 5774 5769 5765 5761 5757 5753 5750 5747 5745 5743 5741 5738 5737 5737 5737 5737 5737 5738 5739 5741 5743 5745
5863 5863 5860 5856 5854 5849 5845 5842 5842 5844 5844 5842 5839 5836 5832 5828 5823 5818 5814 5809 5803 5798 5792 5787 5781 5776 5771 5766 5761 5756 5752 5748 5744 5741 5738 5736 5733 5731 5729 5727 5727 5726 5726 5726 5727 5728 5730 5732 5735
5862 5861 5860 5858 5857 5853 5848 5845 5844 5844 5842 5840 5837 5833 5829 5825 5820 5815 5809 5804 5798 5792 5786 5780 5774 5769 5764 5758 5753 5748 5743 5739 5735 5732 5729 5726 5724 5721 5719 5717 5715 5715 5714 5714 5715 5716 5718 5720 5723
5861 5859 5858 5857 5855 5855 5853 5847 5846 5843 5841 5838 5835 5831 5826 5821 5816 5811 5805 5799 5793 5786 5780 5774 5768 5762 5756 5750 5745 5739 5734 5729 5725 5721 5718 5716 5713 5710 5708 5706 5704 5702 5701 5701 5701 5702 5704 5707 5710
5860 5859 5856 5855 5854 5853 5853 5849 5844 5841 5839 5836 5832 5827 5823 5818 5812 5807 5800 5794 5787 5780 5773 5767 5760 5754 5747 5741 5735 5729 5724 5719 5714 5710 5707 5704 5701 5698 5695 5693 5690 5688 5686 5685 5685 5686 5688 5691 5694
5859 5857 5856 5855 5853 5852 5852 5849 5843 5839 5836 5833 5829 5824 5819 5814 5808 5802 5795 5788 5781 5774 5766 5759 5752 5745 5738 5731 5725 5718 5713 5708 5703 5699 5695 5691 5688 5685 5681 5678 5675 5672 5670 5668 5667 5668 5669 5672 5676